TimeEST,TemperatureF,Dew PointF,Humidity,Sea Level PressureIn,VisibilityMPH,Wind Direction,Wind SpeedMPH,Gust SpeedMPH,PrecipitationIn,Events,Conditions,WindDirDegrees,DateUTC
12:15 AM,51.8,51.8,100,29.97,0.5,Calm,Calm,-,N/A,Rain,Light Rain,0,2012-12-10 05:15:00
12:35 AM,51.8,51.8,100,29.96,0.5,Calm,Calm,-,N/A,Rain,Light Rain,0,2012-12-10 05:35:00
12:55 AM,51.8,51.8,100,29.95,0.5,Calm,Calm,-,N/A,Fog,Fog,0,2012-12-10 05:55:00
1:15 AM,51.8,51.8,100,29.93,0.2,SE,3.5,-,N/A,Fog,Fog,140,2012-12-10 06:15:00
1:35 AM,51.8,51.8,100,29.93,0.2,Calm,Calm,-,N/A,Fog,Fog,0,2012-12-10 06:35:00
1:55 AM,51.8,51.8,100,29.93,1.0,Calm,Calm,-,N/A,,Overcast,0,2012-12-10 06:55:00
2:15 AM,51.8,51.8,100,29.92,0.5,Calm,Calm,-,N/A,Fog,Fog,0,2012-12-10 07:15:00
2:55 AM,52.0,52.0,100,29.91,0.5,Calm,Calm,-,N/A,Fog,Fog,0,2012-12-10 07:55:00
3:15 AM,52.0,52.0,100,29.89,0.5,Calm,Calm,-,N/A,Fog,Fog,0,2012-12-10 08:15:00
3:35 AM,51.8,51.8,100,29.88,0.2,Calm,Calm,-,N/A,Fog,Fog,0,2012-12-10 08:35:00
3:55 AM,52.0,52.0,100,29.87,0.2,Calm,Calm,-,N/A,Rain,Rain,0,2012-12-10 08:55:00
4:15 AM,52.0,52.0,100,29.87,0.5,Calm,Calm,-,N/A,Fog,Fog,0,2012-12-10 09:15:00
4:35 AM,52.0,52.0,100,29.86,0.8,Calm,Calm,-,N/A,,Overcast,0,2012-12-10 09:35:00
4:55 AM,52.0,52.0,100,29.85,0.8,Calm,Calm,-,N/A,,Overcast,0,2012-12-10 09:55:00
5:15 AM,52.0,52.0,100,29.85,0.8,Calm,Calm,-,N/A,Rain,Rain,0,2012-12-10 10:15:00
5:35 AM,52.2,52.2,100,29.84,0.8,Calm,Calm,-,N/A,,Overcast,0,2012-12-10 10:35:00
5:55 AM,52.2,52.2,100,29.83,1.0,Calm,Calm,-,N/A,,Overcast,0,2012-12-10 10:55:00
6:15 AM,52.3,52.3,100,29.84,1.5,Calm,Calm,-,N/A,,Overcast,0,2012-12-10 11:15:00
6:55 AM,52.3,52.3,100,29.83,1.0,Calm,Calm,-,N/A,,Overcast,0,2012-12-10 11:55:00
7:15 AM,52.7,52.7,100,29.82,0.5,Calm,Calm,-,N/A,Fog,Fog,0,2012-12-10 12:15:00
7:35 AM,52.7,52.7,100,29.80,0.5,SSE,6.9,-,0.01,Fog,Fog,150,2012-12-10 12:35:00
7:53 AM,53.6,53.6,100,29.80,0.8,South,5.8,-,0.01,,Overcast,190,2012-12-10 12:53:00
7:55 AM,54.1,54.1,100,29.80,0.8,South,5.8,-,0.01,,Overcast,190,2012-12-10 12:55:00
8:15 AM,55.8,55.8,100,29.79,3.0,South,4.6,-,N/A,,Overcast,190,2012-12-10 13:15:00
8:35 AM,56.5,56.5,100,29.79,3.0,Calm,Calm,-,N/A,,Overcast,0,2012-12-10 13:35:00
8:55 AM,56.8,56.8,100,29.78,2.0,Calm,Calm,-,N/A,,Overcast,0,2012-12-10 13:55:00
9:15 AM,57.2,57.2,100,29.78,1.0,South,4.6,-,N/A,,Overcast,190,2012-12-10 14:15:00
9:35 AM,58.1,58.1,100,29.78,1.2,South,3.5,-,N/A,,Overcast,190,2012-12-10 14:35:00
9:55 AM,59.4,59.4,100,29.78,3.0,SW,4.6,-,N/A,,Overcast,220,2012-12-10 14:55:00
10:35 AM,60.4,60.4,100,29.75,0.8,SSW,4.6,-,N/A,,Overcast,210,2012-12-10 15:35:00
10:55 AM,61.2,61.2,100,29.75,0.8,SW,4.6,-,N/A,,Overcast,220,2012-12-10 15:55:00
11:15 AM,62.2,62.2,100,29.73,3.0,SSW,5.8,-,N/A,,Overcast,210,2012-12-10 16:15:00
11:35 AM,57.6,57.6,100,29.71,5.0,SW,5.8,-,N/A,,Overcast,230,2012-12-10 16:35:00
11:55 AM,57.6,57.6,100,29.70,7.0,SW,5.8,-,N/A,,Overcast,230,2012-12-10 16:55:00
12:15 PM,58.8,58.8,100,29.69,7.0,WSW,6.9,-,N/A,,Mostly Cloudy,240,2012-12-10 17:15:00
12:35 PM,67.1,64.0,90,29.67,10.0,SW,5.8,-,N/A,,Scattered Clouds,220,2012-12-10 17:35:00
12:55 PM,68.7,63.9,84,29.65,10.0,SSW,10.4,16.1,N/A,,Scattered Clouds,210,2012-12-10 17:55:00
1:15 PM,70.0,63.9,81,29.65,10.0,SW,9.2,-,N/A,,Scattered Clouds,220,2012-12-10 18:15:00
1:35 PM,69.8,63.3,80,29.64,10.0,SW,12.7,17.3,N/A,,Mostly Cloudy,230,2012-12-10 18:35:00
1:55 PM,69.8,62.2,77,29.63,10.0,SW,9.2,-,N/A,,Overcast,220,2012-12-10 18:55:00
2:15 PM,69.6,61.0,74,29.62,10.0,WSW,4.6,-,N/A,,Overcast,250,2012-12-10 19:15:00
2:55 PM,68.2,59.7,74,29.62,10.0,WSW,8.1,-,N/A,,Overcast,250,2012-12-10 19:55:00
3:15 PM,68.0,59.4,74,29.62,10.0,WSW,11.5,-,N/A,,Overcast,240,2012-12-10 20:15:00
3:35 PM,67.6,59.0,74,29.62,10.0,SW,11.5,-,N/A,,Overcast,220,2012-12-10 20:35:00
3:55 PM,67.1,59.2,76,29.62,10.0,WSW,8.1,-,N/A,,Overcast,240,2012-12-10 20:55:00
4:15 PM,66.7,59.4,77,29.62,10.0,SW,5.8,-,N/A,,Overcast,230,2012-12-10 21:15:00
4:35 PM,65.7,59.9,82,29.62,10.0,WSW,8.1,-,N/A,,Light Drizzle,240,2012-12-10 21:35:00
4:55 PM,65.3,59.9,83,29.63,10.0,West,5.8,-,N/A,,Overcast,260,2012-12-10 21:55:00
5:15 PM,64.9,59.9,84,29.63,10.0,WSW,4.6,-,N/A,,Overcast,240,2012-12-10 22:15:00
5:35 PM,64.0,59.9,86,29.62,10.0,SW,4.6,-,N/A,,Overcast,220,2012-12-10 22:35:00
5:55 PM,63.7,59.5,86,29.62,10.0,SSW,3.5,-,N/A,,Mostly Cloudy,210,2012-12-10 22:55:00
6:15 PM,62.8,59.9,90,29.62,10.0,WSW,3.5,-,N/A,,Scattered Clouds,240,2012-12-10 23:15:00
6:35 PM,61.2,59.5,94,29.63,10.0,Calm,Calm,-,N/A,,Scattered Clouds,0,2012-12-10 23:35:00
6:55 PM,62.6,60.1,91,29.63,10.0,SW,4.6,-,N/A,,Scattered Clouds,220,2012-12-10 23:55:00
7:15 PM,62.2,59.2,90,29.62,10.0,SSW,6.9,-,N/A,,Scattered Clouds,210,2012-12-11 00:15:00
7:35 PM,64.6,59.4,83,29.62,10.0,SSW,10.4,-,N/A,,Overcast,210,2012-12-11 00:35:00
7:55 PM,64.9,59.2,82,29.60,10.0,SSW,10.4,-,N/A,,Overcast,200,2012-12-11 00:55:00
8:15 PM,64.8,59.2,82,29.60,10.0,SSW,10.4,-,N/A,,Scattered Clouds,200,2012-12-11 01:15:00
8:35 PM,64.6,59.2,83,29.60,10.0,SSW,9.2,-,N/A,,Scattered Clouds,210,2012-12-11 01:35:00
8:55 PM,64.4,59.2,83,29.62,10.0,WSW,8.1,-,N/A,,Scattered Clouds,240,2012-12-11 01:55:00
9:15 PM,64.4,59.4,84,29.62,10.0,SW,8.1,-,N/A,,Clear,230,2012-12-11 02:15:00
9:35 PM,63.5,59.0,85,29.62,10.0,SW,10.4,-,N/A,,Scattered Clouds,220,2012-12-11 02:35:00
9:55 PM,63.7,59.2,85,29.61,10.0,SW,6.9,-,N/A,,Scattered Clouds,220,2012-12-11 02:55:00
10:15 PM,63.5,59.2,86,29.61,10.0,SSW,6.9,-,N/A,,Mostly Cloudy,200,2012-12-11 03:15:00
10:35 PM,62.6,59.0,88,29.61,10.0,SSW,5.8,-,N/A,,Scattered Clouds,210,2012-12-11 03:35:00
10:55 PM,62.6,59.2,89,29.62,10.0,SSW,5.8,-,N/A,,Scattered Clouds,210,2012-12-11 03:55:00
11:15 PM,63.0,59.7,89,29.62,10.0,SSW,8.1,-,N/A,,Mostly Cloudy,200,2012-12-11 04:15:00
11:35 PM,62.2,59.2,90,29.62,10.0,SW,4.6,-,N/A,,Scattered Clouds,220,2012-12-11 04:35:00
11:55 PM,62.6,59.9,91,29.63,10.0,SW,3.5,-,N/A,,Mostly Cloudy,230,2012-12-11 04:55:00